Location: Gleizolles
(44.4833°N, 6.7667°E)
Time: 09:23:25
(UTC+00:00)

Altair - Pass Details

Date: 27 June 2024
Orbit: 1502 x 1682 km, 47.2° (Epoch: 20 July)

Event Time Altitude Azimuth Distance (km) Brightness Sun altitude
Rises 20:49:01 0° 168° (SSE) 4,628 - -12.2°
Reaches altitude 10° 20:55:26 10° 135° (SE) 3,646 - -12.9°
Maximum altitude 20:57:28 11° 122° (ESE) 3,578 - -13.2°
Exits shadow 20:58:44 11° 113° (ESE) 3,609 8.9 -13.3°
Drops below altitude 10° 20:59:30 10° 108° (ESE) 3,654 9.0 -13.4°
Sets 21:05:55 0° 76° (ENE) 4,663 9.8 -14.0°
